Вернуться в каталог

COSMOS 1275 DEB

LostPO
NORAD 39953·DEBRIS·🇷🇺 Russia

Запущен Jun 4, 1981 с Plesetsk Cosmodrome

Loading…

Ближайшие Пролёты (ближайшие 24 часа)

TLE

УстаревшееSource: Space-Track

Эпоха: Aug 14, 2025, 12:22 UTC

1 39953U 81053NP  25226.51591066  .00000122  00000-0  13908-3 0  9995
2 39953  82.9728 322.8720 0179235  67.2313 306.8259 13.55031655 12134

Отслеживайте COSMOS 1275 DEB в реальном времени с AllMySat

Download on the App Store